This is the latest recevied weather packets stored in our database for station/object K4AGR-13. If no packets are shown the sender has not sent any weather packets the latest 10 day(s).
| Time | Temp. | Humidity | Pressure | Rain* | Wind** | Luminosity | Snow |
|---|---|---|---|---|---|---|---|
| 1777604833 | 21.11° C | 78% | 1012.6 hPa | 0 mm | - | 0 W/m² | - |
| 1777604530 | 21.11° C | 78% | 1012.7 hPa | 0 mm | - | 0 W/m² | - |
| 1777604225 | 21.11° C | 78% | 1012.4 hPa | 0 mm | - | 0 W/m² | - |
| 1777603921 | 21.11° C | 78% | 1012.2 hPa | 0 mm | - | 0 W/m² | - |
| 1777603619 | 21.11° C | 78% | 1012.6 hPa | 0 mm | - | 0 W/m² | - |
| 1777603314 | 21.11° C | 78% | 1012 hPa | 0 mm | - | 0 W/m² | - |
| 1777603010 | 21.11° C | 78% | 1012 hPa | 0 mm | - | 0 W/m² | - |
| 1777602705 | 21.11° C | 78% | 1012.1 hPa | 0 mm | - | 0 W/m² | - |
| 1777602400 | 21.11° C | 79% | 1012.1 hPa | 0 mm | - | 0 W/m² | - |
| 1777602097 | 21.11° C | 79% | 1012 hPa | 0 mm | - | 0 W/m² | - |
| 1777600882 | 21.67° C | 79% | 1011.9 hPa | 0 mm | - | 0 W/m² | - |
| 1777586309 | 26.11° C | 59% | 1010 hPa | 0 mm | - | 388 W/m² | - |
| 1777585702 | 25.56° C | 59% | 1010.2 hPa | 0 mm | - | 211 W/m² | - |
| 1777585102 | 26.11° C | 58% | 1010.5 hPa | 0 mm | - | 215 W/m² | - |
| 1777581168 | 26.67° C | 58% | 1010.6 hPa | 0 mm | - | 361 W/m² | - |
| 1777579045 | 26.11° C | 60% | 1010.7 hPa | 0 mm | - | 429 W/m² | - |
| 1777577528 | 26.11° C | 61% | 1010.8 hPa | 0 mm | - | 379 W/m² | - |
| 1777577225 | 26.67° C | 60% | 1011 hPa | 0 mm | - | 492 W/m² | - |
| 1777576920 | 26.67° C | 60% | 1010.8 hPa | 0 mm | - | 598 W/m² | - |
| 1777576616 | 26.11° C | 62% | 1011 hPa | 0 mm | - | 1304 W/m² | - |
| 1777573881 | 26.67° C | 63% | 1011.6 hPa | 0 mm | - | 558 W/m² | - |
| 1777573576 | 26.67° C | 61% | 1011.8 hPa | 0 mm | - | 688 W/m² | - |
| 1777573273 | 25.56° C | 64% | 1011.7 hPa | 0 mm | - | 988 W/m² | - |
| 1777572969 | 25° C | 69% | 1011.9 hPa | 0 mm | - | 1092 W/m² | - |
| 1777572665 | 24.44° C | 69% | 1011.9 hPa | 0 mm | - | 514 W/m² | - |
* Rain latest hour (hover to see other rain measurements)
** Current wind speed in m/s (hover to see current wind gust speed)